[[{"header":{"parameterUnit":"m.s-1","parameterCategory":1,"la1":30.2991,"la2":30.254,"lo1":-89.0895,"lo2":-89.0444,"dy":0.0017,"dx":0.0017,"nx":28,"ny":28,"refTime":"2024-11-26T03:00:00:Z","depth":0,"parameterNumber":2,"parameterNumberName":"U-component_of_WINDS"},"data":[0,0,0,0,0,0,0,0,0,0,0,0,0,0,0,0,0,0,0,0,0,0,0,0,0,0,0,0,0,0,0,0,0,0,0,0,0,0,0,0,0,0,0,0,0,0,0,0,0,0,0,0,0,0,0,0,0,0,1.7466,1.7466,0,1.7472,1.7472,1.7472,1.7443,1.7442,1.7441,1.744,1.7447,1.7448,1.7449,0,0,0,0,0,0,0,0,0,0,0,0,0,1.7429,1.7429,1.7465,1.7466,1.7466,1.7472,1.7472,1.7472,1.7443,1.7442,1.7441,1.744,1.7447,1.7448,1.7449,0,0,0,0,0,0,0,0,0,0,0,0,0,1.7441,1.743,1.7465,1.7452,1.7451,1.7472,1.7472,1.7472,1.7443,1.7442,1.7441,1.7439,1.7446,1.7448,1.7449,1.7484,0,0,1.7454,1.7454,0,0,0,0,0,0,0,0,1.744,1.7442,1.7454,1.7453,1.7452,1.7455,1.7462,1.7476,1.7443,1.7446,1.744,1.7439,1.7451,1.7452,1.7456,1.7484,1.7485,1.7454,1.7455,1.7455,1.7456,0,0,0,0,0,0,0,1.7439,1.7442,1.7468,1.7454,1.7453,1.7446,1.7446,1.7464,1.7456,1.7446,1.7444,1.7445,1.745,1.7455,1.7456,1.7485,1.7454,1.7455,1.7456,1.7457,1.7544,1.7545,0,0,0,0,0,0,1.744,1.7441,1.7468,1.7468,1.7443,1.7447,1.7448,1.7455,1.7455,1.7454,1.7446,1.7443,1.7453,1.7454,1.7456,1.7498,1.7455,1.7457,1.7458,1.7543,1.7544,1.7546,0,0,0,0,0,0,1.744,1.7443,1.7468,1.7454,1.7457,1.7449,1.7458,1.7456,1.7461,1.7455,1.7454,1.7452,1.7452,1.7454,1.7478,1.7498,1.7457,1.7459,1.7541,1.7543,1.7545,1.7582,0,0,0,0,0,0,1.7439,1.7443,1.7456,1.7455,1.7458,1.7489,1.7459,1.7457,1.7463,1.746,1.7461,1.746,1.7451,1.7476,1.7479,1.7499,1.746,1.7539,1.7542,1.7544,1.7579,1.7585,1.759,0,0,0,0,0,1.7437,1.7465,1.7456,1.746,1.7474,1.749,1.7492,1.7481,1.7465,1.7478,1.7475,1.746,1.7495,1.7478,1.7482,1.7503,1.7538,1.7541,1.7544,1.7576,1.7583,1.759,0,0,0,0,0,0,1.7468,1.7465,1.7455,1.7483,1.7487,1.7485,1.7501,1.7489,1.7498,1.7494,1.7481,1.7481,1.7508,1.7507,1.7489,1.7537,1.7514,1.7518,1.7536,1.7544,1.7549,1.7549,1.7461,0,0,0,0,0,1.7478,1.7492,1.7488,1.7514,1.7516,1.7509,1.7515,1.7507,1.7511,1.7512,1.7511,1.7515,1.7527,1.7535,1.7546,1.7578,1.7579,1.7594,1.76,1.7605,1.7609,1.7627,1.7635,1.7557,1.7557,1.7556,0,0,1.7499,1.7499,1.7508,1.752,1.7522,1.7537,1.751,1.7527,1.7538,1.7515,1.7537,1.7537,1.754,1.7569,1.7582,1.757,1.763,1.7609,1.7613,1.7614,1.7631,1.7639,1.7645,1.7559,1.7558,1.7558,0,0,1.7545,1.7546,1.7568,1.7571,1.7575,1.757,1.7575,1.7575,1.7574,1.7597,1.758,1.7593,1.7614,1.7618,1.7623,1.7672,1.7659,1.7676,1.7706,1.7724,1.7731,1.7736,1.7755,1.7761,1.768,1.768,1.768,0,1.757,1.7592,1.7581,1.7599,1.7605,1.7585,1.7608,1.7611,1.7619,1.7623,1.761,1.7637,1.7638,1.7668,1.768,1.7685,1.7691,1.7676,1.7731,1.7736,1.7741,1.7758,1.7765,1.7682,1.7682,1.7682,1.7682,0,1.7624,1.7639,1.7657,1.7665,1.7673,1.7693,1.7685,1.7695,1.7686,1.7683,1.7707,1.7708,1.772,1.7726,1.7717,1.7755,1.7748,1.7733,1.7709,1.7751,1.7767,1.7773,1.7685,1.7685,1.7684,1.7683,0,0,1.7688,1.7691,1.7698,1.7702,1.7705,1.7717,1.7737,1.7749,1.7758,1.7764,1.7781,1.78,1.7787,1.7792,1.7784,1.78,1.7841,1.7783,1.7783,1.7794,1.7884,1.7896,1.7903,1.7832,1.7833,1.7834,1.7884,0,1.7734,1.7768,1.7759,1.7793,1.7808,1.7791,1.7808,1.7813,1.7811,1.7824,1.7821,1.7835,1.7816,1.7819,1.7834,1.7832,1.7858,1.7829,1.7848,1.7849,1.7848,1.7912,1.7924,1.7971,1.789,1.7891,1.7892,0,1.7791,1.78,1.7836,1.7839,1.7845,1.7861,1.7872,1.7884,1.7889,1.7887,1.7894,1.7883,1.7904,1.788,1.7909,1.7889,1.7896,1.7897,1.7898,1.79,1.7873,1.7916,1.7985,1.7992,1.7902,1.7901,1.79,0,1.7835,1.7857,1.7882,1.7886,1.7889,1.7901,1.7903,1.7907,1.7916,1.7925,1.793,1.7942,1.7948,1.7958,1.7951,1.7934,1.7981,1.7956,1.798,1.7981,1.7991,1.799,1.8063,1.7995,1.7995,1.7995,1.7995,0,1.7887,1.791,1.7902,1.7917,1.7943,1.7933,1.7959,1.7959,1.7963,1.7978,1.7964,1.7979,1.7968,1.7982,1.7977,1.8002,1.8005,1.8004,1.8002,1.8006,1.8006,1.801,1.8007,1.7997,1.7996,1.7996,1.7996,0,1.7941,1.7936,1.7962,1.7964,1.7965,1.7984,1.7986,1.8,1.7998,1.8018,1.8022,1.8018,1.8034,1.8028,1.8045,1.8042,1.8074,1.8068,1.8072,1.8071,1.8095,1.8093,1.8174,1.8184,1.811,1.811,1.8111,0,1.7974,1.7992,1.7996,1.8006,1.8009,1.8024,1.8033,1.8024,1.8034,1.8043,1.8056,1.8072,1.8083,1.811,1.8109,1.8122,1.8116,1.8144,1.8118,1.8121,1.8117,1.8117,1.8119,1.8149,1.815,1.815,1.8151,0,1.8035,1.8032,1.8045,1.8058,1.8068,1.8078,1.8086,1.8095,1.8087,1.8098,1.8115,1.8124,1.8142,1.8158,1.817,1.8173,1.8161,1.8159,1.8165,1.8169,1.8171,1.8171,1.8087,1.8157,1.8156,1.8156,1.8156,1.8155,1.8079,1.8095,1.8101,1.8116,1.8122,1.813,1.8144,1.8144,1.8158,1.8172,1.8167,1.8186,1.8193,1.8208,1.8213,1.8228,1.8218,1.8226,1.8229,1.8231,1.8235,1.8169,1.823,1.823,1.823,1.823,1.823,0,1.8139,1.8143,1.8157,1.817,1.8182,1.8171,1.818,1.8191,1.8208,1.8216,1.8228,1.8248,1.8263,1.8264,1.8278,1.8291,1.8286,1.8295,1.8294,1.8295,1.8243,1.8236,1.8299,1.8299,1.8299,1.8299,1.8299,1.8299,1.8172,1.8198,1.8196,1.8225,1.8228,1.8247,1.8254,1.8262,1.8268,1.8291,1.8304,1.8305,1.831,1.8325,1.8339,1.8338,1.8345,1.8356,1.8354,1.8305,1.8298,1.8292,1.8286,1.8357,1.8357,1.8404,1.8405,1.8405]},{"header":{"parameterUnit":"m.s-1","parameterCategory":1,"la1":30.2991,"la2":30.254,"lo1":-89.0895,"lo2":-89.0444,"dy":0.0017,"dx":0.0017,"nx":28,"ny":28,"refTime":"2024-11-26T03:00:00:Z","depth":0,"parameterNumber":3,"parameterNumberName":"V-component_of_WINDS"},"data":[0,0,0,0,0,0,0,0,0,0,0,0,0,0,0,0,0,0,0,0,0,0,0,0,0,0,0,0,0,0,0,0,0,0,0,0,0,0,0,0,0,0,0,0,0,0,0,0,0,0,0,0,0,0,0,0,0,0,2.7612,2.7614,0,2.7741,2.7742,2.7744,2.7825,2.7826,2.7826,2.7827,2.7952,2.7955,2.7957,0,0,0,0,0,0,0,0,0,0,0,0,0,2.7431,2.7434,2.7612,2.7614,2.7615,2.774,2.7742,2.7744,2.7825,2.7826,2.7826,2.7827,2.7951,2.7954,2.7958,0,0,0,0,0,0,0,0,0,0,0,0,0,2.753,2.7435,2.7612,2.7671,2.7678,2.774,2.7742,2.7744,2.7825,2.7826,2.7827,2.7827,2.795,2.7954,2.7958,2.797,0,0,2.7971,2.7973,0,0,0,0,0,0,0,0,2.7524,2.7536,2.7661,2.7667,2.7675,2.7768,2.7725,2.782,2.7825,2.7769,2.7827,2.7828,2.789,2.7899,2.7921,2.7975,2.7981,2.7972,2.7974,2.7976,2.7977,0,0,0,0,0,0,0,2.7517,2.7531,2.7663,2.7662,2.7671,2.7689,2.7704,2.7743,2.7823,2.7774,2.778,2.7795,2.7893,2.7917,2.7925,2.7983,2.7972,2.7975,2.7978,2.798,2.8053,2.8053,0,0,0,0,0,0,2.7502,2.7525,2.7659,2.7667,2.76,2.7692,2.7709,2.7737,2.7823,2.7837,2.7794,2.7798,2.7909,2.792,2.7929,2.7949,2.7976,2.798,2.7983,2.8054,2.8053,2.8052,0,0,0,0,0,0,2.7498,2.7513,2.7654,2.7598,2.7617,2.7695,2.7726,2.7739,2.7763,2.7838,2.7852,2.7803,2.791,2.7923,2.796,2.7955,2.7982,2.7986,2.8054,2.8054,2.8053,2.7988,0,0,0,0,0,0,2.7492,2.7511,2.7517,2.7597,2.762,2.7683,2.7725,2.7741,2.7771,2.7777,2.7851,2.7864,2.7912,2.7953,2.7964,2.7961,2.7989,2.8055,2.8054,2.8053,2.7991,2.7985,2.798,0,0,0,0,0,2.7485,2.7493,2.7517,2.7533,2.763,2.7683,2.7695,2.7752,2.777,2.7776,2.7825,2.7861,2.7953,2.7956,2.7969,2.7967,2.8056,2.8054,2.8053,2.7993,2.7986,2.798,0,0,0,0,0,0,2.7408,2.7504,2.7533,2.7566,2.7616,2.7697,2.7706,2.7743,2.7787,2.7791,2.7858,2.7873,2.7903,2.7939,2.794,2.7983,2.8009,2.801,2.7959,2.7953,2.7947,2.7938,2.7993,0,0,0,0,0,2.7395,2.7432,2.7513,2.7535,2.7559,2.7628,2.7653,2.7693,2.7746,2.7767,2.7818,2.7867,2.7907,2.7932,2.7972,2.7996,2.8013,2.8002,2.7996,2.7991,2.7991,2.8007,2.8002,2.8048,2.8048,2.8048,0,0,2.7368,2.7425,2.7444,2.7521,2.7564,2.76,2.7645,2.768,2.7707,2.7772,2.781,2.7849,2.7907,2.7938,2.7954,2.7968,2.7983,2.7989,2.7985,2.7988,2.8005,2.8,2.7997,2.8047,2.8047,2.8047,0,0,2.7338,2.7385,2.7409,2.7451,2.7517,2.7563,2.7569,2.7644,2.7674,2.7714,2.7763,2.7794,2.7862,2.7902,2.7931,2.7916,2.7951,2.7927,2.7898,2.7912,2.7908,2.7906,2.79,2.7898,2.7926,2.7926,2.7926,0,2.7295,2.7353,2.7415,2.7449,2.7481,2.7544,2.7567,2.7605,2.7679,2.7699,2.7715,2.7802,2.7845,2.7886,2.7883,2.7904,2.7911,2.7919,2.7904,2.7902,2.79,2.7896,2.7894,2.7923,2.7923,2.7924,2.7924,0,2.7298,2.7336,2.7347,2.7421,2.7454,2.7482,2.7547,2.7573,2.7609,2.7653,2.7693,2.7747,2.7801,2.7813,2.7848,2.7859,2.7866,2.7892,2.7919,2.7892,2.7889,2.7888,2.7918,2.792,2.7921,2.7921,0,0,2.7222,2.7331,2.7334,2.7368,2.7445,2.7475,2.7505,2.756,2.7581,2.763,2.7656,2.7712,2.7737,2.777,2.781,2.7822,2.7807,2.7847,2.7849,2.7838,2.7822,2.7802,2.7799,2.7831,2.7831,2.7831,2.7817,0,2.7203,2.7264,2.7321,2.736,2.7396,2.7457,2.7483,2.7532,2.7574,2.7609,2.7654,2.7693,2.7723,2.7743,2.7758,2.7806,2.7805,2.7807,2.7855,2.7856,2.7839,2.7798,2.7777,2.7762,2.7816,2.7816,2.7816,0,2.719,2.7239,2.7282,2.7357,2.7374,2.7397,2.7452,2.7485,2.7542,2.7571,2.7608,2.7651,2.7684,2.7707,2.7753,2.7754,2.7776,2.7802,2.7803,2.781,2.7834,2.7804,2.7758,2.7756,2.7815,2.7815,2.7815,0,2.713,2.7207,2.7243,2.7271,2.7358,2.7373,2.741,2.7467,2.7497,2.7543,2.7563,2.7612,2.7639,2.7675,2.7729,2.7741,2.7769,2.7797,2.7793,2.7792,2.7796,2.7795,2.7754,2.781,2.781,2.781,2.781,0,2.7104,2.7128,2.7218,2.724,2.7269,2.7334,2.7359,2.7401,2.7452,2.7482,2.7535,2.7562,2.7632,2.7666,2.7708,2.774,2.7751,2.7775,2.7786,2.777,2.7767,2.7786,2.7789,2.781,2.781,2.781,2.781,0,2.7043,2.7104,2.7148,2.7228,2.7249,2.7266,2.7334,2.7357,2.7401,2.7439,2.7451,2.7521,2.7564,2.7622,2.7682,2.771,2.7736,2.7753,2.7718,2.7725,2.7718,2.7718,2.7688,2.7687,2.7742,2.7742,2.7741,0,2.7022,2.7043,2.7126,2.7151,2.7187,2.7226,2.7257,2.7321,2.7351,2.7417,2.7431,2.7479,2.7521,2.7587,2.7641,2.7688,2.7706,2.7693,2.7713,2.7697,2.7706,2.7705,2.7707,2.7687,2.7686,2.7686,2.7685,0,2.6979,2.7009,2.7052,2.7107,2.7143,2.7188,2.7235,2.7252,2.7325,2.7355,2.7402,2.7434,2.7497,2.7544,2.7597,2.7633,2.7671,2.7678,2.768,2.7664,2.7643,2.7655,2.7704,2.7678,2.7679,2.768,2.768,2.768,2.6938,2.6959,2.7021,2.7068,2.7111,2.7154,2.718,2.7229,2.727,2.7328,2.7362,2.7407,2.7462,2.7539,2.7573,2.7607,2.7622,2.7624,2.7625,2.7625,2.762,2.7638,2.7617,2.7617,2.7618,2.7618,2.7618,0,2.6898,2.6941,2.6984,2.705,2.7086,2.7121,2.7175,2.7203,2.7242,2.7292,2.7333,2.7385,2.7431,2.7489,2.7538,2.7555,2.7573,2.7565,2.7565,2.7572,2.7604,2.7598,2.755,2.755,2.755,2.755,2.755,2.755,2.6881,2.692,2.6956,2.7016,2.7059,2.7105,2.7133,2.7172,2.7213,2.727,2.7309,2.7348,2.7401,2.7454,2.7497,2.7513,2.7528,2.7515,2.7536,2.7564,2.757,2.7576,2.7571,2.7518,2.7518,2.7502,2.7502,2.7502]}]]